Location: Arcones
(41.1182°N, 3.7238°W)
Time: 19:58:22
(UTC+00:00)

Cosmos 2058 Rocket - Pass Details

Date: 15 March 2026
Orbit: 604 x 632 km, 82.5° (Epoch: 21 April)

Event Time Altitude Azimuth Distance (km) Brightness Sun altitude
Rises 05:19:00 0° 141° (SE) 2,887 6.9 -13.6°
Reaches altitude 10° 05:22:09 10° 116° (ESE) 1,993 6.5 -13.0°
Maximum altitude 05:24:27 14° 84° (E) 1,740 6.7 -12.6°
Drops below altitude 10° 05:26:47 10° 53° (NE) 2,010 6.7 -12.1°
Sets 05:29:58 0° 29° (NNE) 2,928 7.1 -11.5°
